[[{"header":{"parameterUnit":"m.s-1","parameterCategory":2,"la1":30.2992,"la2":30.254,"lo1":-89.0895,"lo2":-89.0443,"dy":0.0025,"dx":0.0025,"nx":19,"ny":19,"refTime":"2026-04-02T21:00:00:Z","depth":"0","parameterNumber":2,"parameterNumberName":"U-component_of_CURRENTS"},"data":[0,0,0,0.0299,0.0298,0.0258,0.0258,0.0241,0.0241,0,0,0,0,0,0,0,0,0,0,0,0.0316,0.0315,0.0299,0.0298,0.0258,0.0258,0.0241,0.0241,0,0,0,0,0,0,0,0,0,0,0,0.0316,0.0315,0.0315,0.0298,0.0258,0.0258,0.0241,0.0265,0,0,0,0,0,0,0,0,0,0,0.03,0.0329,0.0315,0.0315,0.0297,0.0258,0.0258,0.0265,0.0263,0.0267,0,0.0255,0,0.0244,0.024,0.024,0,0,0,0.0305,0.0331,0.0296,0.0315,0.0297,0.0258,0.0278,0.0264,0.0261,0.0264,0.0255,0.0254,0.0244,0.024,0.024,0.0322,0.0323,0,0,0.0307,0.0333,0.0298,0.0295,0.0281,0.0279,0.0277,0.0262,0.0272,0.0255,0.0253,0.0244,0.024,0.024,0.0321,0.0322,0,0,0,0.0309,0.0335,0.0301,0.0296,0.0284,0.0278,0.0275,0.0273,0.0254,0.0253,0.0243,0.024,0.024,0.032,0.0321,0.0425,0,0,0,0.031,0.0335,0.0302,0.0321,0.0283,0.0279,0.0287,0.0256,0.0253,0.0243,0.024,0.024,0.0319,0.0321,0.042,0.0479,0,0,0,0.0318,0.0337,0.0324,0.0321,0.0298,0.0278,0.026,0.0255,0.0247,0.024,0.024,0.0318,0.032,0.0416,0.047,0.0603,0,0,0,0.0357,0.0357,0.0325,0.0325,0.0298,0.0289,0.026,0.0259,0.0256,0.024,0.0319,0.0321,0.0414,0.0465,0.0596,0.0741,0.0782,0,0,0.0377,0.036,0.0358,0.0328,0.0323,0.0296,0.0344,0.0322,0.03,0.0324,0.0326,0.0422,0.047,0.0601,0.0879,0.0917,0,0,0,0.0377,0.0379,0.0369,0.0361,0.0338,0.038,0.0354,0.0374,0.0418,0.0307,0.0442,0.0469,0.0549,0.0623,0.0653,0.0729,0.0332,0.0332,0.0332,0.0463,0.043,0.0442,0.0416,0.0425,0.0445,0.0498,0.0532,0.0476,0.0531,0.0568,0.0758,0.0839,0.0863,0.0938,0.0577,0.0577,0.0578,0.0578,0.0506,0.0503,0.0506,0.0504,0.0534,0.0584,0.0659,0.0666,0.0787,0.0695,0.0768,0.0746,0.0902,0.0971,0.0585,0.0584,0.0583,0.0582,0.0582,0.0549,0.0541,0.0548,0.0568,0.0645,0.0684,0.0829,0.0867,0.0902,0.0976,0.108,0.108,0.1131,0.1022,0.1023,0.1024,0.1024,0.1025,0.1026,0.0575,0.0579,0.0603,0.0634,0.068,0.0787,0.0936,0.1047,0.1207,0.1233,0.1234,0.1231,0.0895,0.0867,0.1039,0.1037,0.1035,0.1034,0.1033,0.0574,0.059,0.0627,0.0666,0.0775,0.0905,0.1052,0.1346,0.1479,0.1597,0.164,0.1384,0.1377,0.1352,0.1336,0.162,0.162,0.162,0.162,0.0584,0.0588,0.0653,0.0721,0.0832,0.096,0.124,0.1491,0.1781,0.192,0.1923,0.1847,0.1819,0.183,0.1795,0.1784,0.2175,0.2176,0.2176,0.0584,0.0612,0.066,0.0726,0.0847,0.1026,0.1276,0.1565,0.2004,0.2199,0.201,0.1987,0.186,0.1811,0.1803,0.1748,0.1719,0,0]},{"header":{"parameterUnit":"m.s-1","parameterCategory":2,"la1":30.2992,"la2":30.254,"lo1":-89.0895,"lo2":-89.0443,"dy":0.0025,"dx":0.0025,"nx":19,"ny":19,"refTime":"2026-04-02T21:00:00:Z","depth":"0","parameterNumber":3,"parameterNumberName":"V-component_of_CURRENTS"},"data":[0,0,0,-0.019,-0.0189,-0.0188,-0.0188,-0.0146,-0.0145,0,0,0,0,0,0,0,0,0,0,0,-0.019,-0.019,-0.019,-0.0189,-0.0188,-0.0188,-0.0146,-0.0145,0,0,0,0,0,0,0,0,0,0,0,-0.019,-0.019,-0.019,-0.0189,-0.0188,-0.0188,-0.0146,-0.0158,0,0,0,0,0,0,0,0,0,0,-0.0164,-0.0184,-0.019,-0.019,-0.0189,-0.0188,-0.0188,-0.0159,-0.0157,-0.0134,0,-0.0133,0,-0.0136,-0.0141,-0.0141,0,0,0,-0.0192,-0.0186,-0.017,-0.019,-0.0189,-0.0188,-0.0189,-0.0158,-0.0156,-0.0131,-0.0133,-0.0131,-0.0135,-0.0141,-0.0141,-0.0086,-0.0086,0,0,-0.0192,-0.0203,-0.0172,-0.0169,-0.0187,-0.0189,-0.0189,-0.0157,-0.0162,-0.0133,-0.0131,-0.0134,-0.014,-0.014,-0.0087,-0.0086,0,0,0,-0.019,-0.0203,-0.019,-0.017,-0.0172,-0.0189,-0.0189,-0.0164,-0.0155,-0.013,-0.0134,-0.014,-0.0139,-0.0087,-0.0086,-0.0058,0,0,0,-0.0191,-0.0202,-0.019,-0.0199,-0.0173,-0.0177,-0.0196,-0.0157,-0.0154,-0.0134,-0.014,-0.0139,-0.0087,-0.0087,-0.0059,-0.0016,0,0,0,-0.0191,-0.0203,-0.0199,-0.0199,-0.0196,-0.0177,-0.0168,-0.0157,-0.0155,-0.0141,-0.0139,-0.0087,-0.0087,-0.006,-0.0019,0.0022,0,0,0,-0.0207,-0.02,-0.0199,-0.0189,-0.0196,-0.0168,-0.0169,-0.016,-0.0148,-0.014,-0.0087,-0.0086,-0.006,-0.0021,0.002,0.0089,0.0104,0,0,-0.0202,-0.02,-0.019,-0.0189,-0.0152,-0.0168,-0.0133,-0.0126,-0.0133,-0.0095,-0.0094,-0.0059,-0.0019,0.0022,0.0109,0.0124,0,0,0,-0.0191,-0.0181,-0.0171,-0.0153,-0.0135,-0.01,-0.0108,-0.0105,-0.0089,-0.0125,-0.0059,-0.0035,-0.001,0.0026,0.0038,-0.0028,-0.0085,-0.0085,-0.0085,-0.0189,-0.0168,-0.0139,-0.0106,-0.0083,-0.0059,-0.0036,-0.0031,-0.0057,-0.0053,-0.0014,0.0039,0.0076,0.0086,0.0016,-0.0032,-0.0032,-0.0032,-0.0032,-0.0154,-0.0124,-0.0099,-0.0063,-0.002,0.001,0.0048,0.0033,0.0063,0.002,0.0042,0.0053,0.0101,0.0021,-0.003,-0.003,-0.003,-0.0031,-0.0031,-0.0135,-0.0113,-0.0099,-0.0032,0.0026,0.0066,0.0156,0.0143,0.0113,0.0132,0.0168,0.0168,0.0103,0.0131,0.0131,0.0131,0.0132,0.0132,0.0132,-0.0111,-0.0092,-0.0047,0.0009,0.0062,0.0146,0.0216,0.0254,0.0264,0.0233,0.0233,0.012,0.0089,0.0088,0.0138,0.0137,0.0136,0.0136,0.0135,-0.0058,-0.0063,0.0012,0.0061,0.019,0.0317,0.0363,0.0454,0.0454,0.0469,0.0276,0.0288,0.0296,0.0286,0.029,0.039,0.039,0.039,0.039,-0.0024,-0.0021,0.0086,0.0183,0.0312,0.041,0.0605,0.0658,0.0531,0.044,0.0341,0.0292,0.0284,0.0286,0.0277,0.0278,0.0372,0.0372,0.0372,0.0028,0.0048,0.0139,0.0222,0.037,0.0529,0.0729,0.0858,0.0614,0.0359,0.0234,0.0235,0.0146,0.014,0.0125,0.0118,0.0113,0,0]}],[{"header":{"parameterUnit":"m.s-1","parameterCategory":2,"la1":30.2992,"la2":30.254,"lo1":-89.0895,"lo2":-89.0443,"dy":0.0025,"dx":0.0025,"nx":19,"ny":19,"refTime":"2026-04-02T21:00:00:Z","depth":"2","parameterNumber":2,"parameterNumberName":"U-component_of_CURRENTS"},"data":[0,0,0,0.0548,0.0546,0.0485,0.0485,0.0437,0.0437,0,0,0,0,0,0,0,0,0,0,0,0.0573,0.0572,0.0548,0.0546,0.0485,0.0485,0.0438,0.0437,0,0,0,0,0,0,0,0,0,0,0,0.0573,0.0573,0.0572,0.0546,0.0485,0.0485,0.0438,0.0477,0,0,0,0,0,0,0,0,0,0,0.0532,0.0558,0.0573,0.0572,0.0546,0.0485,0.0485,0.0478,0.0474,0.0473,0,0.0463,0,0.0447,0.0434,0.0434,0,0,0,0.0548,0.0561,0.0536,0.0572,0.0545,0.0485,0.0513,0.0476,0.0471,0.0468,0.0462,0.046,0.0446,0.0434,0.0434,0.05,0.0501,0,0,0.0551,0.057,0.0539,0.0533,0.0528,0.0515,0.0511,0.0473,0.0474,0.0462,0.0459,0.0445,0.0434,0.0434,0.0499,0.05,0,0,0,0.056,0.0573,0.0548,0.0536,0.052,0.0513,0.0509,0.0476,0.0465,0.0458,0.0444,0.0434,0.0433,0.0498,0.0499,0.0599,0,0,0,0.0562,0.0577,0.055,0.0561,0.0521,0.0495,0.0513,0.0468,0.0462,0.0445,0.0434,0.0433,0.0497,0.0499,0.0594,0.0648,0,0,0,0.0576,0.0579,0.0569,0.0562,0.0533,0.0495,0.0482,0.0466,0.0454,0.0434,0.0433,0.0496,0.0498,0.059,0.064,0.077,0,0,0,0.06,0.0603,0.057,0.0567,0.0534,0.0525,0.0482,0.0466,0.0452,0.0433,0.0497,0.0499,0.0588,0.0635,0.0764,0.0884,0.0922,0,0,0.062,0.0606,0.0603,0.0572,0.0571,0.0534,0.0569,0.0523,0.0495,0.0509,0.051,0.0596,0.0639,0.0768,0.1023,0.1058,0,0,0,0.062,0.0625,0.0617,0.0604,0.0581,0.0609,0.0563,0.0579,0.0604,0.0497,0.0617,0.0642,0.072,0.078,0.0808,0.0511,0.051,0.051,0.051,0.0688,0.0661,0.0673,0.0653,0.0655,0.0661,0.0706,0.0727,0.0665,0.0712,0.0739,0.0926,0.0991,0.1013,0.0751,0.0751,0.0752,0.0752,0.0752,0.0731,0.0728,0.0726,0.0729,0.0747,0.0781,0.0848,0.0848,0.096,0.0866,0.0937,0.0901,0.105,0.0761,0.0759,0.0758,0.0757,0.0756,0.0756,0.0764,0.076,0.0764,0.0779,0.0842,0.0868,0.1002,0.1036,0.1067,0.1138,0.1224,0.1223,0.1002,0.1181,0.1182,0.1182,0.1183,0.1184,0.1184,0.0779,0.0786,0.0807,0.0837,0.0873,0.0964,0.11,0.1205,0.135,0.1367,0.1369,0.1072,0.1058,0.1029,0.1197,0.1195,0.1193,0.1192,0.1191,0.0782,0.0791,0.0828,0.086,0.0958,0.1073,0.1211,0.1482,0.1609,0.1719,0.1519,0.1506,0.1497,0.1475,0.1457,0.1726,0.1726,0.1726,0.1726,0.0787,0.0792,0.0847,0.0907,0.1011,0.1124,0.1366,0.1545,0.1701,0.173,0.1728,0.1621,0.1603,0.1589,0.1564,0.1542,0.1834,0.1834,0.1833,0.0789,0.0812,0.0851,0.091,0.1024,0.1183,0.1372,0.1497,0.1677,0.1823,0.1595,0.1763,0.1598,0.1571,0.1536,0.1501,0.1461,0,0]},{"header":{"parameterUnit":"m.s-1","parameterCategory":2,"la1":30.2992,"la2":30.254,"lo1":-89.0895,"lo2":-89.0443,"dy":0.0025,"dx":0.0025,"nx":19,"ny":19,"refTime":"2026-04-02T21:00:00:Z","depth":"2","parameterNumber":3,"parameterNumberName":"V-component_of_CURRENTS"},"data":[0,0,0,-0.0278,-0.0278,-0.0282,-0.0282,-0.0237,-0.0237,0,0,0,0,0,0,0,0,0,0,0,-0.0278,-0.0278,-0.0278,-0.0278,-0.0282,-0.0282,-0.0237,-0.0237,0,0,0,0,0,0,0,0,0,0,0,-0.0278,-0.0278,-0.0278,-0.0278,-0.0282,-0.0282,-0.0238,-0.0247,0,0,0,0,0,0,0,0,0,0,-0.025,-0.0264,-0.0278,-0.0278,-0.0278,-0.0282,-0.0282,-0.0248,-0.0246,-0.0222,0,-0.0225,0,-0.0228,-0.0233,-0.0233,0,0,0,-0.0278,-0.0266,-0.0258,-0.0278,-0.0278,-0.0282,-0.028,-0.0248,-0.0246,-0.0219,-0.0224,-0.0223,-0.0227,-0.0232,-0.0232,-0.0176,-0.0176,0,0,-0.0278,-0.0284,-0.026,-0.0257,-0.0281,-0.028,-0.028,-0.0247,-0.0249,-0.0224,-0.0222,-0.0226,-0.0232,-0.0232,-0.0177,-0.0176,0,0,0,-0.0277,-0.0284,-0.0279,-0.0259,-0.0262,-0.028,-0.028,-0.0251,-0.0247,-0.0221,-0.0226,-0.0232,-0.0231,-0.0177,-0.0176,-0.0147,0,0,0,-0.0277,-0.0284,-0.0279,-0.0283,-0.0263,-0.0265,-0.0285,-0.0249,-0.0246,-0.0226,-0.0232,-0.023,-0.0177,-0.0177,-0.0148,-0.0106,0,0,0,-0.0277,-0.0284,-0.0283,-0.0284,-0.0284,-0.0266,-0.0261,-0.0249,-0.0248,-0.0233,-0.023,-0.0177,-0.0177,-0.0149,-0.0108,-0.0065,0,0,0,-0.0285,-0.0284,-0.0283,-0.0279,-0.0284,-0.0264,-0.0262,-0.0251,-0.0239,-0.0231,-0.0177,-0.0176,-0.0149,-0.011,-0.0068,-0.0019,-0.0006,0,0,-0.0285,-0.0284,-0.0279,-0.0278,-0.0253,-0.0264,-0.023,-0.0218,-0.0223,-0.0184,-0.0184,-0.0148,-0.0109,-0.0066,0.0002,0.0015,0,0,0,-0.0279,-0.0274,-0.0268,-0.0254,-0.024,-0.0202,-0.0204,-0.02,-0.0179,-0.0215,-0.0149,-0.0124,-0.0098,-0.0074,-0.0064,-0.0175,-0.0175,-0.0175,-0.0175,-0.0277,-0.0262,-0.024,-0.0213,-0.019,-0.0162,-0.0137,-0.0127,-0.015,-0.0141,-0.0102,-0.0048,-0.0024,-0.0015,-0.012,-0.012,-0.012,-0.012,-0.012,-0.0253,-0.0228,-0.0202,-0.0176,-0.0127,-0.0093,-0.005,-0.0061,-0.0027,-0.0068,-0.0045,-0.0046,-0.0001,-0.0118,-0.0118,-0.0118,-0.0119,-0.0119,-0.0119,-0.0236,-0.0218,-0.0206,-0.0143,-0.0082,-0.0037,0.0057,0.0049,0.0024,0.0044,0.007,0.007,-0.0008,0.0046,0.0047,0.0047,0.0047,0.0048,0.0048,-0.0213,-0.0197,-0.0154,-0.0102,-0.0049,0.0042,0.0119,0.016,0.0168,0.0134,0.0134,0.0009,0.0004,0.0002,0.0054,0.0052,0.0052,0.0051,0.0051,-0.0169,-0.017,-0.0099,-0.005,0.0078,0.0205,0.0257,0.0347,0.035,0.0358,0.0186,0.0181,0.0186,0.0177,0.018,0.0275,0.0275,0.0275,0.0275,-0.0136,-0.0134,-0.0025,0.0071,0.0198,0.0295,0.0478,0.0508,0.0432,0.0352,0.0349,0.0306,0.0295,0.0303,0.0291,0.0295,0.042,0.042,0.042,-0.0089,-0.0067,0.0026,0.0111,0.0255,0.0412,0.0585,0.0637,0.0502,0.0424,0.035,0.0289,0.0214,0.0202,0.0201,0.0187,0.0187,0,0]}],[{"header":{"parameterUnit":"m.s-1","parameterCategory":2,"la1":30.2992,"la2":30.254,"lo1":-89.0895,"lo2":-89.0443,"dy":0.0025,"dx":0.0025,"nx":19,"ny":19,"refTime":"2026-04-02T21:00:00:Z","depth":"4","parameterNumber":2,"parameterNumberName":"U-component_of_CURRENTS"},"data":[0,0,0,0.0864,0.0867,0.0997,0.0997,0.1165,0.1167,0,0,0,0,0,0,0,0,0,0,0,0.0831,0.0832,0.0864,0.0867,0.0997,0.0998,0.1165,0.1167,0,0,0,0,0,0,0,0,0,0,0,0.0831,0.0832,0.0834,0.0867,0.0997,0.0998,0.1165,0.1068,0,0,0,0,0,0,0,0,0,0,0.0942,0.0909,0.0832,0.0834,0.0868,0.0997,0.0998,0.1063,0.1074,0.1104,0,0.1133,0,0.1147,0.1177,0.1178,0,0,0,0.0874,0.09,0.0933,0.0834,0.0869,0.0996,0.094,0.1069,0.1081,0.1118,0.1136,0.1142,0.1149,0.1178,0.1179,0.1317,0.1317,0,0,0.0867,0.0857,0.0924,0.094,0.0915,0.0936,0.0944,0.1077,0.1096,0.1136,0.1146,0.1152,0.1179,0.118,0.1317,0.1317,0,0,0,0.0841,0.0852,0.0882,0.0934,0.0954,0.094,0.0949,0.109,0.11,0.1147,0.1154,0.118,0.1182,0.1316,0.1317,0.1368,0,0,0,0.0838,0.0836,0.0879,0.0874,0.0951,0.1023,0.096,0.1091,0.1106,0.1153,0.118,0.1184,0.1316,0.1317,0.1366,0.1359,0,0,0,0.0823,0.0835,0.0853,0.0873,0.0925,0.1021,0.1039,0.1095,0.111,0.1178,0.1184,0.1316,0.1317,0.1364,0.1357,0.1367,0,0,0,0.0803,0.0834,0.0853,0.0897,0.0924,0.1001,0.1038,0.1121,0.1182,0.1181,0.1316,0.1317,0.1363,0.1355,0.1366,0.123,0,0,0,0.0823,0.0837,0.0861,0.088,0.0953,0.0983,0.1058,0.1159,0.12,0.1273,0.1277,0.1367,0.1357,0.1367,0.1277,0,0,0,0,0.0854,0.0879,0.0905,0.0956,0.1007,0.1067,0.1138,0.1189,0.1298,0.1237,0.1368,0.136,0.1365,0.1282,0.1321,0.1321,0.1321,0.132,0.132,0.0866,0.0898,0.0951,0.1001,0.1052,0.1137,0.1195,0.1274,0.1316,0.1377,0.1404,0.1446,0.1362,0.1421,0.1422,0.1422,0.1422,0.1422,0.1422,0.0898,0.0923,0.0982,0.1044,0.1105,0.1174,0.1278,0.133,0.1424,0.1449,0.1452,0.1345,0.1428,0.1427,0.1426,0.1425,0.1425,0.1425,0.1424,0.0893,0.0907,0.096,0.1044,0.1133,0.1211,0.129,0.1376,0.1458,0.1486,0.1399,0.1466,0.1457,0.1508,0.1508,0.1508,0.1508,0.1508,0.1508,0.0853,0.0906,0.0954,0.1045,0.1099,0.1183,0.1313,0.1363,0.145,0.1417,0.1506,0.1473,0.1471,0.1461,0.1509,0.1509,0.1509,0.1509,0.1509,0.0835,0.0862,0.0925,0.0975,0.1078,0.1116,0.1241,0.1305,0.1347,0.1348,0.1371,0.1377,0.1336,0.1336,0.132,0.1328,0.1326,0.1325,0,0.0808,0.0829,0.0902,0.0955,0.1001,0.1073,0.1102,0.1178,0.1246,0.1205,0.1352,0.1374,0.1379,0.133,0.1328,0.1307,0,0,0,0.0798,0.0823,0.0859,0.0921,0.0962,0.1012,0.1103,0.1104,0.1221,0.1239,0.1285,0.1295,0.1445,0.1511,0.1462,0.1459,0.1441,0,0]},{"header":{"parameterUnit":"m.s-1","parameterCategory":2,"la1":30.2992,"la2":30.254,"lo1":-89.0895,"lo2":-89.0443,"dy":0.0025,"dx":0.0025,"nx":19,"ny":19,"refTime":"2026-04-02T21:00:00:Z","depth":"4","parameterNumber":3,"parameterNumberName":"V-component_of_CURRENTS"},"data":[0,0,0,-0.0144,-0.0145,-0.0234,-0.0235,-0.0409,-0.041,0,0,0,0,0,0,0,0,0,0,0,-0.0121,-0.0122,-0.0144,-0.0145,-0.0234,-0.0235,-0.0408,-0.041,0,0,0,0,0,0,0,0,0,0,0,-0.0121,-0.0121,-0.0122,-0.0146,-0.0234,-0.0235,-0.0408,-0.0331,0,0,0,0,0,0,0,0,0,0,-0.0239,-0.0202,-0.0121,-0.0122,-0.0146,-0.0234,-0.0235,-0.0327,-0.0336,-0.0379,0,-0.0386,0,-0.0392,-0.0421,-0.0422,0,0,0,-0.0165,-0.0194,-0.0214,-0.0122,-0.0147,-0.0234,-0.02,-0.0331,-0.0342,-0.0391,-0.0388,-0.0394,-0.0395,-0.0422,-0.0423,-0.0505,-0.0505,0,0,-0.0161,-0.0148,-0.0206,-0.0219,-0.0162,-0.0197,-0.0202,-0.0337,-0.0349,-0.0388,-0.0398,-0.0397,-0.0423,-0.0425,-0.0506,-0.0505,0,0,0,-0.0133,-0.0144,-0.0159,-0.0213,-0.0219,-0.0199,-0.0205,-0.0343,-0.0346,-0.0399,-0.0399,-0.0424,-0.0426,-0.0506,-0.0505,-0.047,0,0,0,-0.0131,-0.0126,-0.0157,-0.0152,-0.0215,-0.0273,-0.0208,-0.0337,-0.0352,-0.0399,-0.0424,-0.0428,-0.0506,-0.0506,-0.0472,-0.0424,0,0,0,-0.0119,-0.0125,-0.0131,-0.015,-0.0178,-0.027,-0.0283,-0.0341,-0.0352,-0.0422,-0.0428,-0.0507,-0.0506,-0.0474,-0.0428,-0.0375,0,0,0,-0.0109,-0.0118,-0.0131,-0.0145,-0.0177,-0.0214,-0.0282,-0.0351,-0.041,-0.0425,-0.0506,-0.0505,-0.0474,-0.043,-0.0378,-0.0317,0,0,0,-0.0113,-0.0119,-0.0126,-0.0139,-0.0168,-0.0203,-0.0227,-0.0349,-0.0407,-0.0471,-0.0473,-0.0472,-0.0428,-0.0375,-0.027,0,0,0,0,-0.0122,-0.013,-0.0142,-0.0162,-0.0187,-0.0205,-0.0289,-0.0322,-0.0406,-0.0432,-0.0464,-0.0437,-0.0405,-0.0379,-0.0501,-0.0502,-0.0502,-0.0502,-0.0502,-0.013,-0.0137,-0.015,-0.0163,-0.0179,-0.0223,-0.024,-0.0295,-0.0373,-0.0398,-0.0405,-0.0331,-0.0303,-0.0418,-0.0418,-0.0418,-0.0418,-0.0418,-0.0418,-0.0139,-0.0141,-0.0146,-0.0162,-0.0166,-0.0183,-0.0209,-0.0256,-0.0273,-0.0349,-0.0321,-0.0339,-0.0414,-0.0415,-0.0415,-0.0416,-0.0416,-0.0416,-0.0416,-0.0146,-0.0142,-0.0151,-0.0152,-0.0151,-0.0162,-0.0126,-0.0175,-0.0225,-0.021,-0.0188,-0.0285,-0.029,-0.0216,-0.0216,-0.0215,-0.0215,-0.0215,-0.0214,-0.0141,-0.0146,-0.0137,-0.0139,-0.0125,-0.0101,-0.0088,-0.0068,-0.0114,-0.0105,-0.0201,-0.0262,-0.0269,-0.0277,-0.0208,-0.0209,-0.021,-0.021,-0.0211,-0.0135,-0.0136,-0.0115,-0.01,-0.0054,-0.0024,-0.0011,0.0049,0.0081,0.0092,-0.0043,-0.0053,-0.0048,-0.0059,-0.0061,0.0076,0.0077,0.0078,0,-0.012,-0.0123,-0.0075,-0.0031,0.0027,0.0034,0.0125,0.0148,0.0118,0.0115,0.0053,-0.0103,-0.011,-0.0111,-0.0119,-0.0124,0,0,0,-0.01,-0.0088,-0.0041,-0.0003,0.0067,0.0131,0.0156,0.0183,0.0111,0.0178,0.0106,0.0099,-0.0084,-0.0187,-0.0203,-0.0211,-0.0225,0,0]}]]